Regional Weather Roundup
Issued by NWS

Home | Current Version | Previous Version | Text Only | Print | Product List | Glossary Off
Versions: 1 2 3 4 5 6 7 8 9 10 11 12 13 14 15 16 17 18 19 20 21 22 23 24 25 26 27 28 29 30 31 32 33 34 35 36 37 38 39 40 41 42 43 44 45 46 47 48 49 50

000
ASUS44 KMEG 290210
RWRTN
TENNESSEE HOURLY STATE WEATHER ROUNDUP
NATIONAL WEATHER SERVICE MEMPHIS TN
900 PM CDT WED SEP 28 2016

TNZ002-004-019-021-049-052-054-088>092-290300-
WEST TENNESSEE

CITY           SKY/WX    TMP DP  RH WIND       PRES   REMARKS
MEMPHIS INTL   PTCLDY    72  49  44 N14G25    30.02R
NWS MEMPHIS      N/A     70 N/A N/A MISG        N/A
JACKSON          N/A    N/A N/A N/A MISG      30.04R
DYERSBURG      CLEAR    N/A N/A N/A MISG      30.07
UNION CITY     CLEAR     61  46  59 N14       30.06R
PARIS          CLEAR     57  45  62 N8        30.06R
HUNTINGDON     CLEAR     63  48  59 VRB6      30.04R
LEXINGTON      PTCLDY    64  48  55 N9        30.03R
$$

TNZ008-025-027-028-033-062-065-066-290300-
NORTH MIDDLE TENNESSEE

CITY           SKY/WX    TMP DP  RH WIND       PRES   REMARKS
NASHVILLE      CLOUDY    63  55  75 VRB7      30.02R
PORTLAND       MOCLDY    57  54  88 N6        30.02R
CLARKSVILLE    CLEAR     59  45  59 N16       30.04R
SMYRNA         CLOUDY    62  56  80 NE3       30.02R
COOKEVILLE     MOCLDY    59  52  77 VRB3      30.00R
GALLATIN       MOCLDY    61  55  82 NW8       30.04R
CROSSVILLE     CLOUDY    61  53  75 NW9       30.01R
$$

TNZ061-075-076-078-094-096-097-290300-
SOUTH MIDDLE TENNESSEE

CITY           SKY/WX    TMP DP  RH WIND       PRES   REMARKS
FAYETTEVILLE   CLOUDY    70  54  56 N13G25    29.97R
TULLAHOMA      MOCLDY    64  45  48 N15       30.01R
WINCHESTER     PTCLDY    66  55  68 N14       29.99R
MCMINNVILLE    PTCLDY    61  54  77 N6        30.01R
COLUMBIA       MOCLDY    66  59  77 N5        30.00R
SHELBYVILLE    PTCLDY    66  52  59 N5        30.02R
$$

TNZ017-018-042-046-047-290300-
NORTHEAST TENNESSEE

CITY           SKY/WX    TMP DP  RH WIND       PRES   REMARKS
TRI CITIES     PTCLDY    60  50  69 CALM      29.94R
ELIZABETHTON     N/A     57  54  88 CALM      29.95S
$$

TNZ012-013-036-069-073-074-290300-
CENTRAL EAST TENNESSEE

CITY           SKY/WX    TMP DP  RH WIND       PRES   REMARKS
KNOXVILLE      PTCLDY    70  46  42 SW7       29.90S
OAK RIDGE      CLOUDY    71  51  49 N7        29.94R
DOWNTOWN KNOXV CLEAR     70  50  49 CALM      29.90S
GATLINBURG     CLEAR     61  48  63 E3        29.91S
MORRISTOWN     CLEAR     64  46  52 SE3       29.92R
JACKSBORO      CLOUDY    66  55  68 CALM      30.00R
$$

TNZ083-085-099-290300-
SOUTHEAST TENNESSEE

CITY           SKY/WX    TMP DP  RH WIND       PRES   REMARKS
CHATTANOOGA    PTCLDY    67  52  58 CALM      29.92R
$$

SKY/WX REPORTED AS FAIR MEANS FEW OR NO CLOUDS BELOW
12 THOUSAND FEET.





USA.gov is the U.S. government's official web portal to all federal, state and local government web resources and services.